Theta_e
326 327 330 330 331 336 340 341 347 351 352 352 355 356 354 354 355 358 353 351 351 346 346 344 346 352 351 349 344 341 340 336 337
324 326 331 332 332 335 340 341 346 349 353 353 355 357 356 355 354 355 358 353 350 351 347 347 346 352 351 348 344 343 340 337 335
324 325 328 334 334 334 341 342 344 349 356 355 357 357 358 358 358 357 356 356 353 351 351 350 347 352 351 348 345 343 340 337 339
326 328 328 332 335 336 340 343 344 346 355 356 357 358 358 358 359 360 358 356 354 353 350 350 349 351 350 347 345 343 341 337 336
326 328 330 330 335 337 337 342 344 346 355 355 358 359 360 359 359 362 360 358 355 355 351 351 350 349 349 347 345 343 342 338 338
326 325 322 328 333 336 338 341 344 345 351 356 358 359 360 360 360 359 361 359 357 356 355 352 349 348 346 346 345 344 343 340 336
323 325 325 324 333 334 337 338 342 344 347 354 358 359 360 359 360 360 361 362 358 356 357 353 348 348 346 346 346 344 343 340 338
320 324 326 324 331 333 336 336 339 343 346 347 355 356 358 358 360 361 361 361 360 356 357 356 349 346 346 346 345 344 341 341 339
320 324 328 329 328 335 336 336 337 340 343 345 347 353 355 358 358 360 360 359 359 358 355 357 352 347 346 344 346 335 337 341 340
320 321 325 329 332 333 336 340 340 339 341 344 346 346 352 355 357 358 359 359 358 358 356 358 353 348 345 342 342 331 333 337 340
321 322 324 325 336 336 338 347 343 343 343 343 345 347 349 353 355 358 359 359 358 358 358 354 351 347 344 341 341 329 326 332 338
315 320 321 326 328 338 342 345 348 345 344 346 344 346 348 353 355 357 359 358 358 358 356 353 348 344 342 340 339 327 323 326 333
319 320 320 323 326 326 340 339 351 347 345 347 345 345 350 352 356 357 359 359 358 355 353 349 345 343 342 336 340 323 321 324 333
323 319 321 320 322 324 327 340 348 350 348 346 351 352 357 358 360 361 360 358 356 355 349 346 343 341 341 341 339 332 317 317 332
330 333 335 333 326 330 333 340 348 347 349 352 353 358 360 360 360 360 356 353 351 350 347 343 340 338 335 337 339 329 316 315 321
330 331 333 337 347 353 355 352 349 349 354 358 359 359 358 358 356 355 351 347 344 342 341 339 335 335 333 334 338 338 318 313 314
340 343 345 348 350 350 352 355 358 357 358 358 357 354 352 349 349 347 346 343 342 340 339 338 336 336 334 332 333 330 323 320 317
343 345 348 349 349 351 352 355 354 355 356 355 352 350 346 343 339 330 320 315 326 334 322 328 338 337 336 333 331 329 322 320 322
341 341 343 344 347 348 350 352 352 352 351 348 345 341 340 334 331 328 324 320 312 301 302 300 302 308 319 312 313 307 306 306 307
331 336 337 338 340 341 342 342 340 347 346 343 342 340 336 333 330 330 326 323 320 313 308 301 298 299 302 306 302 300 299 298 300
Wind_Speed
10 7 23 24 23 24 24 23 23 23 23 21 20 19 18 15 14 7 7 7 5 7 8 8 8 9 9 9 7 7 6 4 4
10 13 12 22 22 21 24 24 23 24 24 22 21 21 17 16 14 13 9 8 7 6 6 8 10 10 12 10 8 8 7 5 5
6 6 13 18 22 22 23 26 23 23 25 26 24 22 18 16 16 14 11 7 9 8 7 8 12 13 12 11 9 8 8 6 5
20 20 21 23 24 24 22 23 22 22 22 24 22 21 19 18 15 16 13 12 9 8 9 10 14 14 12 11 11 10 8 7 7
18 27 29 28 21 22 21 24 23 24 21 23 22 21 20 18 16 15 15 15 14 13 10 13 14 13 14 13 12 12 11 10 8
11 15 10 22 20 20 21 21 23 24 23 23 23 21 20 18 17 16 17 17 13 14 13 12 14 15 15 15 14 12 11 11 8
7 7 10 10 23 21 21 21 22 23 23 23 22 21 21 19 19 18 18 16 16 11 14 14 15 15 15 14 13 13 11 10 9
8 8 9 9 18 17 21 20 19 21 21 22 22 21 21 21 18 17 17 16 16 17 12 14 13 13 11 11 11 10 11 10 10
6 6 9 7 10 17 17 16 16 20 21 21 21 21 22 19 18 17 17 16 15 15 15 13 11 12 12 10 9 11 15 13 10
18 13 9 11 11 12 12 18 21 21 22 20 21 21 18 19 18 18 18 16 15 14 16 11 12 11 10 7 9 16 17 16 8
2 6 10 10 13 8 9 10 16 20 19 21 20 20 19 18 18 18 17 16 16 13 12 10 10 9 10 8 7 8 11 15 10
10 14 6 5 6 6 10 11 15 17 18 19 20 18 20 19 19 18 17 17 15 11 10 10 9 8 8 11 9 14 12 10 8
6 10 8 12 8 5 8 9 14 17 18 16 18 19 19 18 17 18 17 16 14 10 12 11 10 11 12 12 10 14 16 10 4
2 7 10 10 10 9 11 9 13 16 17 19 17 13 11 14 15 16 16 15 12 12 12 12 13 13 12 17 13 9 13 12 5
9 9 9 6 5 6 6 11 15 15 16 13 11 12 12 13 15 13 12 15 11 10 10 9 7 4 1 1 7 9 10 14 13
7 7 5 5 5 8 6 5 10 14 11 14 15 16 15 14 13 13 13 12 11 9 9 8 6 5 4 2 3 4 11 13 12
8 7 8 6 7 8 7 6 9 13 12 15 17 17 15 13 14 12 10 8 8 9 8 7 8 8 6 4 3 4 3 3 3
8 8 8 6 7 6 7 11 12 13 17 19 18 16 13 13 11 11 10 8 5 7 4 2 6 6 6 6 5 4 8 9 5
10 8 7 8 7 8 7 11 13 14 14 15 16 15 11 9 10 8 9 9 8 18 10 9 8 1 8 3 5 13 13 10 8
8 9 8 7 6 6 7 8 4 11 13 11 13 13 11 9 10 7 8 7 8 11 7 16 16 14 10 10 11 12 13 11 10
Wind_Direction
182 190 188 189 189 189 186 184 179 176 179 181 184 186 193 195 199 202 204 183 167 180 177 176 170 165 160 163 161 161 163 156 171
198 219 186 190 190 186 185 185 181 180 179 183 185 189 192 196 195 201 207 185 184 179 178 175 178 164 168 170 168 165 161 176 184
191 223 199 184 198 187 185 186 182 180 178 183 185 189 191 195 196 197 198 181 195 184 186 158 173 176 171 173 171 168 171 178 189
179 207 229 219 198 188 181 182 180 180 179 182 186 189 191 194 195 195 195 203 194 182 185 163 173 174 171 176 175 178 176 186 189
195 199 212 206 187 187 175 179 178 181 177 182 187 188 189 195 192 191 193 204 202 200 190 177 177 175 179 183 180 182 181 187 192
226 213 188 202 187 179 179 176 179 180 179 184 186 186 189 189 191 193 197 201 197 195 195 180 181 181 185 186 185 182 189 193 191
242 244 194 161 185 179 178 179 179 182 186 183 183 184 188 190 191 194 199 197 199 188 192 187 184 189 190 189 181 183 179 183 191
223 235 190 152 168 168 176 180 181 184 186 186 182 185 189 191 191 194 196 197 194 200 193 194 184 182 184 181 180 183 173 188 194
161 217 152 189 153 166 172 175 185 182 185 188 186 187 193 188 189 188 193 194 195 194 200 197 177 178 175 174 188 170 178 184 192
187 214 208 186 188 176 168 180 187 184 186 183 186 193 189 190 189 189 191 189 191 190 194 185 176 171 163 167 185 186 189 191 198
277 261 215 204 183 183 182 173 184 187 178 183 187 191 191 189 190 189 185 187 188 182 183 167 163 157 169 165 181 207 202 201 201
183 244 206 173 198 189 179 167 173 176 178 182 185 186 189 188 187 184 183 185 178 164 155 153 158 161 157 177 182 192 195 187 199
214 191 187 174 236 178 180 195 166 167 179 178 187 192 189 181 180 178 176 171 162 143 150 152 147 167 176 178 192 193 196 183 174
307 199 204 194 197 187 188 187 165 171 178 184 189 185 159 163 167 163 159 149 144 146 156 159 172 176 183 176 182 177 178 173 165
63 63 33 31 152 175 197 167 166 174 180 176 137 133 138 139 140 142 140 133 136 158 155 151 148 155 112 192 142 147 177 182 201
48 55 48 42 94 78 36 132 164 163 159 134 129 124 130 131 126 129 131 127 130 126 119 120 109 111 127 190 164 160 179 189 200
64 45 35 69 83 98 97 82 103 119 120 119 118 119 122 116 113 113 111 115 115 114 119 128 146 154 165 172 202 146 130 115 118
51 50 25 44 83 72 83 102 105 113 121 119 116 113 112 113 110 111 101 74 79 116 67 117 176 183 142 141 171 202 153 146 162
62 55 49 46 42 77 90 100 105 101 95 114 119 119 124 129 130 122 117 112 86 41 54 65 47 125 120 96 141 139 127 139 143
63 64 50 42 53 50 47 77 79 96 103 111 123 121 118 110 111 115 112 115 124 118 72 59 60 58 81 99 138 121 122 122 112